AirNav   Phillips 66 Aviation Fuel
 
 340 users online  

MA36 Snow Airport
Ipswich, Massachusetts, USA

GOING TO IPSWICH?


FAA INFORMATION EFFECTIVE 24 MAY 2018

Location

FAA Identifier: MA36
Lat/Long: 42-39-59.3370N / 070-51-10.6800W
42-39.988950N / 070-51.178000W
42.6664825 / -70.8529667
(estimated)
Elevation: 61 ft. / 18.6 m (surveyed)
Variation: 16W (1985)
From city: 1 mile SW of IPSWICH, MA
Time zone: UTC -4 (UTC -5 during Standard Time)
Zip code: 01938

Airport Operations

Airport use: Private use. Permission required prior to landing
Activation date: 09/1950
Control tower: no
ARTCC: BOSTON CENTER
FSS: BRIDGEPORT FLIGHT SERVICE STATION
Attendance: CONTINUOUS
Wind indicator: no
Segmented circle: no

Airport Communications

WX ASOS at BVY (6 nm SW): PHONE 978-921-5042
WX ASOS at LWM (12 nm W): 126.75 (978-687-8017)
WX ASOS at BOS (19 nm S): PHONE 617-567-5762

Nearby radio navigation aids

VOR radial/distance  VOR name  Freq  Var
LWMr128/11.6LAWRENCE VOR/DME112.5015W
BOSr034/19.5BOSTON VOR/DME112.7016W
PSMr198/25.1PEASE VOR/DME116.5016W
MHTr133/25.8MANCHESTER VOR/DME114.4015W

 
NDB name  Hdg/Dist  Freq  Var  ID
SHAKER HILL065/19.225116WSKR ... -.- .-.
ROLLINS198/33.226016WESG . ... --.
MARSHFIELD003/35.036816WIMR .. -- .-.

Airport Services

Fuel available: 100LL
Airframe service: NONE
Powerplant service: NONE

Runway Information

Runway 4/22

Dimensions: 1600 x 100 ft. / 488 x 30 m
Surface: turf
RUNWAY 4  RUNWAY 22
Traffic pattern: leftleft

Airport Ownership and Management from official FAA records

Ownership: Privately-owned
Owner: CROCKER SNOW
120 TOPSFIELD RD
IPSWICH, MA 01938-1665
Phone 978-395-1961
Manager: CROCKER SNOW
120 TOPSFIELD RD
IPSWICH, MA 01938-1665
Phone 978-356-4422

Airport Operational Statistics

Aircraft based on the field: 1
Single engine airplanes: 1
    

Instrument Procedures

There are no published instrument procedures at MA36.

Some nearby airports with instrument procedures:

KBVY - Beverly Regional Airport (6 nm SW)
KLWM - Lawrence Municipal Airport (12 nm W)
KBOS - General Edward Lawrence Logan International Airport (19 nm S)
KBED - Laurence G Hanscom Field Airport (23 nm SW)
KPSM - Portsmouth International Airport at Pease (25 nm N)
 
Loc | Ops | Rwys | IFR | FBO | Links
Com | Nav | Svcs | Stats | Notes

AirNav Hotels Sweepstakes
 
Area around MA36 (Snow Airport)
 
Road maps at: MapQuest Bing Google
 
Aerial photo
No photo
 
Sectional chart

 
Airport distance calculator
Flying to Snow Airport? Find the distance to fly.

From to MA36

Sunrise and sunset
Times for 26-May-2018
 Local
(UTC-4)
 Zulu
(UTC)
Morning civil twilight04:3908:39
Sunrise05:1309:13
Sunset20:0800:08
Evening civil twilight20:4200:42

Current date and time
Zulu (UTC)  26-May-2018 06:54:55
Local (UTC-4)  26-May-2018 02:54:55
 
METAR
KBVY 
6nm SW 
260553Z AUTO 22005KT 10SM CLR 21/14 A2971 RMK AO2 SLP055 T02060139 10267 20206 58005
KLWM 
13nm W 
260554Z AUTO 24009KT 10SM CLR 24/13 A2973 RMK AO2 SLP064 T02390133 10283 20233 58007
KBOS 
19nm S 
260554Z 23012KT 10SM CLR 22/14 A2973 RMK AO2 SLP065 T02170144 10283 20211 58005
TAF
KBOS 
19nm S 
260540Z 2606/2712 24010KT P6SM FEW150 FM261600 27008KT P6SM SCT200 FM261900 30007KT P6SM BKN080 FM270000 06008KT P6SM VCSH BKN050 FM270200 06008KT 5SM BR VCSH OVC040 FM270400 05010KT 3SM BR VCSH OVC015 FM270900 06013KT P6SM VCSH OVC015
KBED 
23nm SW 
260540Z 2606/2706 23005KT P6SM SCT120 FM261600 27006KT P6SM SCT150 FM261900 30005KT P6SM BKN070 FM262200 03005KT P6SM VCSH BKN070 FM270100 06005KT P6SM VCSH OVC040 FM270300 06006KT P6SM VCSH OVC020 FM270500 05007KT 5SM BR VCSH OVC010
KPSM 
24nm N 
260527Z 2606/2706 25007KT P6SM BKN090 BKN250 FM261400 28007KT P6SM SCT080 BKN120 FM262100 07008KT P6SM OVC060
NOTAMs
Click for the latest NOTAMs
NOTAMs are issued by the DoD/FAA and will open in a separate window not controlled by AirNav.

 

 
 

Would you like to see your business listed on this page?

 If your business provides an interesting product or service to pilots, flight crews, aircraft, or users of the Snow Airport, you should consider listing it here.  To start the listing process, click on the button below
 
Add a business
 

Other Pages about Snow Airport

Update a link
 
Copyright © AirNav, LLC. All rights reserved. Privacy Policy  Contact